Regional Weather Roundup
Issued by NWS Glasgow, MT

Home | Current Version | Previous Version | Text Only | Print | Product List | Glossary On
Versions: 1 2 3 4 5 6 7 8 9 10 11 12 13 14 15 16 17 18 19 20 21 22 23 24 25 26 27 28 29 30 31 32 33 34 35 36 37 38 39 40 41 42 43 44 45 46 47 48 49 50
000
ASUS45 KGGW 250615
RWRGGW
HOURLY WEATHER ROUNDUP FOR NORTHEAST MONTANA
NATIONAL WEATHER SERVICE GLASGOW MONTANA
1200 AM MDT SAT APR 25 2015

NOTE: "FAIR" INDICATES FEW OR NO CLOUDS BELOW 12,000 FEET WITH NO
SIGNIFICANT WEATHER AND/OR OBSTRUCTIONS TO VISISBILITY.

NORTHEAST MONTANA


CITY           SKY/WX    TMP DP  RH WIND       PRES   REMARKS
GLASGOW        CLOUDY    53  33  46 N8        29.60S
6HR MIN TEMP:  51; 6HR MAX TEMP:  66;

PLENTYWOOD       N/A    N/A N/A N/A N13         N/A
WOLF POINT     CLOUDY    51  42  71 NE7       29.60R
JORDAN           N/A     52  38  58 N6        29.60S
WINNETT          N/A     46  42  86 W10         N/A
SIDNEY         MOCLDY    55  34  44 CALM      29.64S
GLENDIVE       MOCLDY    52  34  50 E5        29.63S
MALTA            N/A     51  38  60 NW8         N/A
SCOBEY           N/A     51  30  44 E10       29.62F
OPHEIM           N/A     48  32  53 N1        29.46R

FORT PECK REPORTS


CITY           SKY/WX    TMP DP  RH WIND       PRES   REMARKS
FORT PECK        N/A     51  33  50 NW7         N/A
THE PINES        N/A     54  30  40 N3G12       N/A

SOUTHEAST MONTANA


CITY           SKY/WX    TMP DP  RH WIND       PRES   REMARKS
BILLINGS       MOCLDY    49  40  71 NW21      29.59R
MILES CITY     MOCLDY    47  44  90 N8        29.57F
BAKER          PTCLDY    45  34  65 SE10      29.63S
LIVINGSTON     LGT RAIN  38  50 100 W10       29.71F

CENTRAL MONTANA


CITY           SKY/WX    TMP DP  RH WIND       PRES   REMARKS
HAVRE          CLOUDY    50  36  58 SW9       29.68R
LEWISTOWN      RAIN      42  39  89 N8        29.71R
GREAT FALLS    LGT RAIN  41  38  89 E10       29.74R
CUT BANK       CLOUDY    38  20  48 W9        29.72S
HELENA         CLOUDY    43  34  70 E6        29.73S
BUTTE          CLOUDY    36  32  85 CALM      29.76S
BOZEMAN        LGT RAIN  37  34  89 W13       29.75F

WESTERN MONTANA


CITY           SKY/WX    TMP DP  RH WIND       PRES   REMARKS
MISSOULA       MOCLDY    37  24  59 N8        29.80S
KALISPELL      NOT AVBL

NORTH DAKOTA


CITY           SKY/WX    TMP DP  RH WIND       PRES   REMARKS
WILLISTON      MOCLDY    53  36  52 SE8       29.65S
DICKINSON      CLEAR     44  36  73 E13       29.64S
MINOT          FAIR      43  37  79 E8        29.74R
BISMARCK       CLEAR     43  40  89 NE8       29.71S

SOUTHERN SASKATCHEWAN


CITY           SKY/WX    TMP DP  RH WIND       PRES   REMARKS
REGINA         CLOUDY    50  34  53 E13G18    29.69S
ESTEVAN        MOCLDY    50  39  66 E14       29.69S
SWIFT CURRENT  CLOUDY    41  34  75 E9        29.67F



USA.gov is the U.S. government's official web portal to all federal, state and local government web resources and services.